Regional Weather Roundup
Issued by NWS

Home | Current Version | Previous Version | Graphics & Text | Print | Product List | Glossary On
Versions: 1 2 3 4 5 6 7 8 9 10 11 12 13 14 15 16 17 18 19 20 21 22 23 24 25 26 27 28 29 30 31 32 33 34 35 36 37 38 39 40 41 42 43 44 45 46 47 48 49 50
000
ASUS43 KOAX 301502
RWRNE

WEATHER ROUNDUP FOR NEBRASKA
NATIONAL WEATHER SERVICE OMAHA NE
1000 AM CDT SUN APR 30 2017

NOTES: SATELLITE DATA IS BEING USED TO AUGMENT CLOUD COVER ABOVE
       12000 FEET.
       "FAIR" INDICATES FEW OR NO CLOUDS BELOW 12,000 FEET WITH NO
       SIGNIFICANT WEATHER AND/OR OBSTRUCTIONS TO VISIBILITY.

  * THESE STATIONS DO NOT REPORT WEATHER SUCH AS RAIN...SNOW OR FOG.

NEZ001>004-019>022-054>056-301600-
NEBRASKA PANHANDLE

CITY           SKY/WX    TMP DP  RH WIND       PRES   REMARKS
SCOTTSBLUFF    MOSUNNY   44  23  43 NW17      30.00S
ALLIANCE       CLOUDY    39  26  59 N17       29.96S WCI  30
CHADRON        CLOUDY    44  28  53 N9        30.02F
KIMBALL        CLOUDY    38  23  54 N17       29.98R WCI  28
SIDNEY         CLOUDY    38  22  52 N25G32    29.94S WCI  27
$$

NEZ057>060-069>072-079>082-301600-
SOUTHWEST NEBRASKA

CITY           SKY/WX    TMP DP  RH WIND       PRES   REMARKS
NORTH PLATTE   CLOUDY    41  22  46 N29G39    29.79S
IMPERIAL       CLOUDY    39  23  52 N28G43    29.81S WCI  28
LEXINGTON      LGT RAIN  37  32  81 N28G43    29.67F WCI  25
MCCOOK         FLURRIES  37  30  75 N25G33    29.72S WCI  25
OGALLALA       CLOUDY    42  24  47 N29G39    29.85F
$$

NEZ005>010-023>029-035>040-094-301600-
NORTH CENTRAL NEBRASKA

CITY           SKY/WX    TMP DP  RH WIND       PRES   REMARKS
VALENTINE      PTSUNNY   44  22  41 N16G25    29.94F
AINSWORTH      PTSUNNY   40  26  58 N24G33    29.90R WCI  30
BROKEN BOW     CLOUDY    40  27  59 N32G44    29.76F WCI  28
O`NEILL        CLOUDY    42  26  54 NE20      29.89R
ORD            LGT RAIN  35  32  88 N22G30    29.78F FOG     WCI  23
THEDFORD       CLOUDY    41  26  53 N22G31    29.88R
$$

NEZ041-046>049-061>064-073>077-083>087-301600-
SOUTH CENTRAL NEBRASKA

CITY           SKY/WX    TMP DP  RH WIND       PRES   REMARKS
GRAND ISLAND   CLOUDY    35  35 100 NE32G48   29.66F WCI  21
AURORA         CLOUDY    37  37 100 NE41G52   29.61F WCI  22
HASTINGS       HVY RAIN  36  34  93 NE29G39   29.64R FOG     WCI  23
HEBRON         RAIN      37  37  97 NE29G38   29.58R VSB 1   WCI  25
HOLDREGE       LGT RAIN  34  33  96 NE29G36   29.70R WCI  20
KEARNEY *      CLOUDY   N/A N/A N/A N37G47    29.62R
YORK           CLOUDY    37  37 100 NE40G49   29.62F WCI  23
$$

NEZ011>018-030>034-042>045-301600-
NORTHEAST NEBRASKA

CITY           SKY/WX    TMP DP  RH WIND       PRES   REMARKS
NORFOLK        RAIN      37  34  89 NE23G29   29.80F FOG     WCI  26
ALBION         LGT SNOW  36  33  88 N20G26    29.79F WCI  25
BLAIR          LGT RAIN  39  38  95 N21G31    29.69F WCI  29
FREMONT        LGT RAIN  39  38  99 N15G26    29.73F WCI  30
TEKAMAH        RAIN      39  37  92 N24G31    29.77F FOG     WCI  28
WAYNE          LGT RAIN  39  38  99 NE20      29.84F WCI  29
$$

NEZ050>053-065>068-078-088>093-301600-
SOUTHEAST NEBRASKA

CITY           SKY/WX    TMP DP  RH WIND       PRES   REMARKS
LINCOLN        LGT RAIN  40  37  89 NE36G48   29.62F WCI  27
OMAHA EPPLEY   LGT RAIN  41  36  82 NE20G29   29.70F FOG
BEATRICE       LGT RAIN  40  38  96 NE23G35   29.54F WCI  29
FALLS CITY     CLOUDY    43  41  93 NE23G32   29.52F
NEBRASKA CITY  CLOUDY    40  40 100 NE26G35   29.60S WCI  29
PLATTSMOUTH    CLOUDY    40  37  89 NE18G24   29.65F WCI  31
$$

NEZ044-045-051>053-067-301600-
OMAHA AREA

CITY           SKY/WX    TMP DP  RH WIND       PRES   REMARKS
OMAHA EPPLEY   LGT RAIN  41  36  82 NE20G29   29.70F FOG
BLAIR          LGT RAIN  39  38  95 N21G31    29.69F WCI  29
FREMONT        LGT RAIN  39  38  99 N15G26    29.73F WCI  30
MILLARD        LGT RAIN  42  39  90 NE10G22   29.71F
OFFUTT AFB     CLOUDY    41  37  87 NE16G26   29.68F
PLATTSMOUTH    CLOUDY    40  37  89 NE18G24   29.65F WCI  31
WAHOO          RAIN      39  37  93 N25       29.71F WCI  28
$$




USA.gov is the U.S. government's official web portal to all federal, state and local government web resources and services.